Orbital elements of FENGYUN 1C DEB
| Launched | 9 May 1999 |
| Flight ended | – |
| Launch site | Taiyuan Space Center, PRC |
| Owner | People's Republic of China |
| NORAD ID | 31168 |
| Date fetched |
Epoch osculation |
Inc. [°] |
Ecc. | RA asc node [hr] |
Arg Peri. [°] |
Mean anom [°] |
Mean motion [rev/day] |
Abs. mag |
| Date fetched |
Epoch osculation |
Inc. [°] |
Ecc. | RA asc node [hr] |
Arg Peri. [°] |
Mean anom [°] |
Mean motion [rev/day] |
Abs. mag |
| 2026 May 08 17:57 | 2026 May 05 08:51:08 | 98.9102 | 0.01051 | 18.2739 | 339.1141 | 20.5784 | 14.68895 | – |
| 2026 May 07 17:58 | 2026 May 05 08:51:08 | 98.9102 | 0.01051 | 18.2739 | 339.1141 | 20.5784 | 14.68895 | – |
| 2026 May 06 17:57 | 2026 May 05 08:51:08 | 98.9102 | 0.01051 | 18.2739 | 339.1141 | 20.5784 | 14.68895 | – |
| 2026 May 05 17:57 | 2026 May 05 08:51:08 | 98.9102 | 0.01051 | 18.2739 | 339.1141 | 20.5784 | 14.68895 | – |
| 2026 May 04 17:57 | 2026 Apr 29 08:59:10 | 98.9082 | 0.01054 | 17.8385 | 357.7120 | 20.5784 | 14.68895 | – |
| 2026 May 03 17:57 | 2026 Apr 29 08:59:10 | 98.9082 | 0.01054 | 17.8385 | 357.7120 | 20.5784 | 14.68895 | – |
| 2026 May 02 17:57 | 2026 Apr 29 08:59:10 | 98.9082 | 0.01054 | 17.8385 | 357.7120 | 20.5784 | 14.68895 | – |
| 2026 May 01 17:56 | 2026 Apr 29 08:59:10 | 98.9082 | 0.01054 | 17.8385 | 357.7120 | 20.5784 | 14.68895 | – |
| 2026 Apr 30 17:56 | 2026 Apr 29 08:59:10 | 98.9082 | 0.01054 | 17.8385 | 357.7120 | 20.5784 | 14.68895 | – |
| 2026 Apr 29 17:57 | 2026 Apr 22 08:35:36 | 98.9080 | 0.01059 | 17.3290 | 19.4963 | 20.5784 | 14.68895 | – |
| 2026 Apr 28 17:56 | 2026 Apr 22 08:35:36 | 98.9080 | 0.01059 | 17.3290 | 19.4963 | 20.5784 | 14.68895 | – |
| 2026 Apr 27 17:58 | 2026 Apr 22 08:35:36 | 98.9080 | 0.01059 | 17.3290 | 19.4963 | 20.5784 | 14.68895 | – |
| 2026 Apr 26 17:58 | 2026 Apr 22 08:35:36 | 98.9080 | 0.01059 | 17.3290 | 19.4963 | 20.5784 | 14.68895 | – |
| 2026 Apr 25 17:58 | 2026 Apr 22 08:35:36 | 98.9080 | 0.01059 | 17.3290 | 19.4963 | 20.5784 | 14.68895 | – |
| 2026 Apr 24 17:59 | 2026 Apr 22 08:35:36 | 98.9080 | 0.01059 | 17.3290 | 19.4963 | 20.5784 | 14.68895 | – |
| 2026 Apr 23 17:57 | 2026 Apr 17 20:41:19 | 98.9068 | 0.01061 | 17.0026 | 33.3611 | 20.5784 | 14.68895 | – |
| 2026 Apr 22 17:57 | 2026 Apr 17 20:41:19 | 98.9068 | 0.01061 | 17.0026 | 33.3611 | 20.5784 | 14.68895 | – |
| 2026 Apr 21 17:57 | 2026 Apr 17 20:41:19 | 98.9068 | 0.01061 | 17.0026 | 33.3611 | 20.5784 | 14.68895 | – |
| 2026 Apr 20 17:57 | 2026 Apr 17 20:41:19 | 98.9068 | 0.01061 | 17.0026 | 33.3611 | 20.5784 | 14.68895 | – |
| 2026 Apr 19 17:58 | 2026 Apr 17 20:41:19 | 98.9068 | 0.01061 | 17.0026 | 33.3611 | 20.5784 | 14.68895 | – |
| 2026 Apr 18 17:56 | 2026 Apr 12 08:15:31 | 98.9056 | 0.01063 | 16.6020 | 50.3596 | 20.5784 | 14.68895 | – |
| 2026 Apr 16 17:57 | 2026 Apr 12 08:15:31 | 98.9056 | 0.01063 | 16.6020 | 50.3596 | 20.5784 | 14.68895 | – |
| 2026 Apr 14 17:57 | 2026 Apr 12 08:15:31 | 98.9056 | 0.01063 | 16.6020 | 50.3596 | 20.5784 | 14.68895 | – |
| 2026 Apr 13 17:57 | 2026 Apr 12 08:15:31 | 98.9056 | 0.01063 | 16.6020 | 50.3596 | 20.5784 | 14.68895 | – |
| 2026 Apr 12 17:57 | 2026 Apr 08 15:58:14 | 98.9055 | 0.01065 | 16.3350 | 61.7391 | 20.5784 | 14.68895 | – |
| 2026 Apr 11 17:57 | 2026 Apr 08 15:58:14 | 98.9055 | 0.01065 | 16.3350 | 61.7391 | 20.5784 | 14.68895 | – |